Regional Weather Roundup
Issued by NWS

Home | Current Version | Previous Version | Text Only | Print | Product List | Glossary Off
Versions: 1 2 3 4 5 6 7 8 9 10 11 12 13 14 15 16 17 18 19 20 21 22 23 24 25 26 27 28 29 30 31 32 33 34 35 36 37 38 39 40 41 42 43 44 45 46 47 48 49 50

014
ASUS43 KLMK 081710
RWRKY
KENTUCKY REGIONAL WEATHER ROUNDUP
NATIONAL WEATHER SERVICE LOUISVILLE KY
1200 PM EST THU DEC 08 2016

NOTE "FAIR" INDICATES FEW OR NO CLOUDS BELOW 12,000 FEET
WITH NO SIGNIFICANT WEATHER AND/OR OBSTRUCTIONS TO VISIBILITY.

KYZ001>023-026-027-061>063-070>075-081800-
WESTERN AND SOUTH CENTRAL KENTUCKY

CITY           SKY/WX    TMP DP  RH WIND       PRES   REMARKS
PADUCAH        SUNNY     32  12  43 NW12      30.50S WCI  23
HENDERSON      SUNNY     30  16  55 W14       30.46F WCI  20
OWENSBORO      SUNNY     31  16  54 NW15      30.45F WCI  20
HOPKINSVILLE   MOSUNNY   33  11  40 NW14      30.45F WCI  23
BOWLING GREEN  SUNNY     36  18  48 NW10      30.43F WCI  28
GLASGOW        MOSUNNY   33  22  63 W9G16     30.39F WCI  26
$$

KYZ024-025-028>034-038-045-046-053-081800-
NORTH CENTRAL KENTUCKY

CITY           SKY/WX    TMP DP  RH WIND       PRES   REMARKS
LOUISVILLE/SDF MOSUNNY   33  15  47 SW14      30.38S WCI  23
LOUISVILLE/LOU SUNNY     32  15  49 W12       30.38S WCI  23
FORT KNOX      SUNNY     30  15  53 W16       30.37S WCI  19
$$

KYZ035>037-039>044-047>052-055>060-089>105-081800-
NORTHEAST KENTUCKY

CITY           SKY/WX    TMP DP  RH WIND       PRES   REMARKS
LEXINGTON      PTSUNNY   31  17  56 W13G21    30.32F WCI  21
COVINGTON      MOSUNNY   30  14  51 W16G25    30.28F WCI  19
FRANKFORT      PTSUNNY   31  16  54 W13       30.34S WCI  21
$$

KYZ054-064>069-076>088-106>120-081800-
SOUTHEAST KENTUCKY

CITY           SKY/WX    TMP DP  RH WIND       PRES   REMARKS
JACKSON        SUNNY     35  20  54 W8        30.26F WCI  29
LONDON         SUNNY     36  19  50 W12G17    30.30F WCI  28
SOMERSET       MOSUNNY   34  21  60 W9        30.35F WCI  26
MIDDLESBORO    MOSUNNY   37  22  52 N12       30.30F WCI  30
MONTICELLO     MOSUNNY   36  20  52 W10G20    30.36F WCI  28
$$





USA.gov is the U.S. government's official web portal to all federal, state and local government web resources and services.